Time,TemperatureF,DewpointF,PressureIn,WindDirection,WindDirectionDegrees,WindSpeedMPH,WindSpeedGustMPH,Humidity,HourlyPrecipIn,Conditions,Clouds,dailyrainin,SoftwareType,DateUTC
2013-11-06 00:05:00,30.7,28.7,30.20,WNW,295,1.0,-999.0,92,0.00,,,0.00,Wunderground v.1.15,2013-11-06 06:05:00,
2013-11-06 00:15:00,30.6,28.6,30.20,NNW,338,0.0,-999.0,92,0.00,,,0.00,Wunderground v.1.15,2013-11-06 06:15:00,
2013-11-06 00:25:00,30.6,28.6,30.20,NW,314,0.0,-999.0,92,0.00,,,0.00,Wunderground v.1.15,2013-11-06 06:25:00,
2013-11-06 00:35:00,30.6,28.6,30.20,NW,307,0.0,-999.0,92,0.00,,,0.00,Wunderground v.1.15,2013-11-06 06:35:00,
2013-11-06 00:40:00,30.6,28.6,30.20,North,353,0.0,-999.0,92,0.00,,,0.00,Wunderground v.1.15,2013-11-06 06:40:00,
2013-11-06 00:45:00,30.6,28.6,30.20,NW,319,0.0,-999.0,92,0.00,,,0.00,Wunderground v.1.15,2013-11-06 06:45:00,
2013-11-06 00:55:00,30.6,28.6,30.20,NNW,338,0.0,-999.0,92,0.00,,,0.00,Wunderground v.1.15,2013-11-06 06:55:00,
2013-11-06 01:05:00,30.5,28.5,30.20,NW,314,0.0,-999.0,92,0.00,,,0.00,Wunderground v.1.15,2013-11-06 07:05:00,
2013-11-06 01:15:00,30.4,28.4,30.20,NNE,13,0.0,-999.0,92,0.00,,,0.00,Wunderground v.1.15,2013-11-06 07:15:00,
2013-11-06 01:25:00,30.3,28.3,30.20,WNW,301,0.0,-999.0,92,0.00,,,0.00,Wunderground v.1.15,2013-11-06 07:25:00,
2013-11-06 01:35:00,30.3,28.3,30.20,NW,322,0.0,-999.0,92,0.00,,,0.00,Wunderground v.1.15,2013-11-06 07:35:00,
2013-11-06 01:45:00,30.3,28.3,30.20,NW,307,0.0,-999.0,92,0.00,,,0.00,Wunderground v.1.15,2013-11-06 07:45:00,
2013-11-06 01:55:00,30.4,28.4,30.20,NW,319,1.0,-999.0,92,0.00,,,0.00,Wunderground v.1.15,2013-11-06 07:55:00,
2013-11-06 02:05:00,30.3,28.3,30.21,NW,304,0.0,-999.0,92,0.00,,,0.00,Wunderground v.1.15,2013-11-06 08:05:00,
2013-11-06 02:15:00,30.2,28.2,30.21,NW,318,0.0,-999.0,92,0.00,,,0.00,Wunderground v.1.15,2013-11-06 08:15:00,
2013-11-06 02:25:00,30.1,28.1,30.21,NW,322,0.0,-999.0,92,0.00,,,0.00,Wunderground v.1.15,2013-11-06 08:25:00,
2013-11-06 02:35:00,30.1,28.3,30.22,NW,311,0.0,-999.0,93,0.00,,,0.00,Wunderground v.1.15,2013-11-06 08:35:00,
2013-11-06 02:45:00,30.2,28.2,30.22,NW,326,0.0,-999.0,92,0.00,,,0.00,Wunderground v.1.15,2013-11-06 08:45:00,
2013-11-06 02:55:00,30.1,28.1,30.22,WNW,301,0.0,-999.0,92,0.00,,,0.00,Wunderground v.1.15,2013-11-06 08:55:00,
2013-11-06 03:00:00,30.1,28.1,30.22,NW,311,1.0,-999.0,92,0.00,,,0.00,Wunderground v.1.15,2013-11-06 09:00:00,
2013-11-06 03:05:00,30.1,28.3,30.22,NW,311,0.0,-999.0,93,0.00,,,0.00,Wunderground v.1.15,2013-11-06 09:05:00,
2013-11-06 03:15:00,30.0,28.2,30.23,NW,314,0.0,-999.0,93,0.00,,,0.00,Wunderground v.1.15,2013-11-06 09:15:00,
2013-11-06 03:25:00,30.0,28.2,30.23,WNW,295,0.0,-999.0,93,0.00,,,0.00,Wunderground v.1.15,2013-11-06 09:25:00,
2013-11-06 03:35:00,30.0,28.2,30.22,WNW,286,0.0,-999.0,93,0.00,,,0.00,Wunderground v.1.15,2013-11-06 09:35:00,
2013-11-06 03:45:00,29.9,28.1,30.22,NW,304,0.0,-999.0,93,0.00,,,0.00,Wunderground v.1.15,2013-11-06 09:45:00,
2013-11-06 03:55:00,29.8,28.0,30.22,WNW,288,0.0,-999.0,93,0.00,,,0.00,Wunderground v.1.15,2013-11-06 09:55:00,
2013-11-06 04:00:00,29.8,28.0,30.22,NW,304,0.0,-999.0,93,0.00,,,0.00,Wunderground v.1.15,2013-11-06 10:00:00,
2013-11-06 04:15:00,29.8,28.0,30.23,WNW,288,0.0,-999.0,93,0.00,,,0.00,Wunderground v.1.15,2013-11-06 10:15:00,
2013-11-06 04:25:00,29.8,28.3,30.23,NW,313,0.0,-999.0,94,0.00,,,0.00,Wunderground v.1.15,2013-11-06 10:25:00,
2013-11-06 04:35:00,29.7,28.2,30.24,WNW,293,0.0,-999.0,94,0.00,,,0.00,Wunderground v.1.15,2013-11-06 10:35:00,
2013-11-06 04:45:00,29.7,28.2,30.24,NW,314,0.0,-999.0,94,0.00,,,0.00,Wunderground v.1.15,2013-11-06 10:45:00,
2013-11-06 04:55:00,29.7,28.2,30.24,NW,311,0.0,-999.0,94,0.00,,,0.00,Wunderground v.1.15,2013-11-06 10:55:00,
2013-11-06 05:00:00,29.6,28.1,30.24,NW,319,0.0,-999.0,94,0.00,,,0.00,Wunderground v.1.15,2013-11-06 11:00:00,
2013-11-06 05:15:00,29.5,28.0,30.24,NW,311,0.0,-999.0,94,0.00,,,0.00,Wunderground v.1.15,2013-11-06 11:15:00,
2013-11-06 05:25:00,29.4,27.9,30.24,WNW,301,0.0,-999.0,94,0.00,,,0.00,Wunderground v.1.15,2013-11-06 11:25:00,
2013-11-06 05:35:00,29.5,28.0,30.24,WNW,302,0.0,-999.0,94,0.00,,,0.00,Wunderground v.1.15,2013-11-06 11:35:00,
2013-11-06 05:45:00,29.4,27.9,30.25,WNW,300,0.0,-999.0,94,0.00,,,0.00,Wunderground v.1.15,2013-11-06 11:45:00,
2013-11-06 05:55:00,29.3,27.8,30.24,WNW,283,0.0,-999.0,94,0.00,,,0.00,Wunderground v.1.15,2013-11-06 11:55:00,
2013-11-06 06:05:00,29.1,27.6,30.24,West,277,0.0,-999.0,94,0.00,,,0.00,Wunderground v.1.15,2013-11-06 12:05:00,
2013-11-06 06:10:00,29.1,27.6,30.24,West,281,0.0,-999.0,94,0.00,,,0.00,Wunderground v.1.15,2013-11-06 12:10:00,
2013-11-06 06:20:00,28.9,27.4,30.24,WNW,287,0.0,-999.0,94,0.00,,,0.00,Wunderground v.1.15,2013-11-06 12:20:00,
2013-11-06 06:25:00,28.9,27.4,30.24,NW,314,0.0,-999.0,94,0.00,,,0.00,Wunderground v.1.15,2013-11-06 12:25:00,
2013-11-06 06:35:00,28.8,27.3,30.24,WNW,290,0.0,-999.0,94,0.00,,,0.00,Wunderground v.1.15,2013-11-06 12:35:00,
2013-11-06 06:45:00,28.7,27.2,30.24,WNW,293,0.0,-999.0,94,0.00,,,0.00,Wunderground v.1.15,2013-11-06 12:45:00,
2013-11-06 06:55:00,28.6,27.1,30.24,West,270,0.0,-999.0,94,0.00,,,0.00,Wunderground v.1.15,2013-11-06 12:55:00,
2013-11-06 07:05:00,28.5,27.0,30.25,West,278,1.0,-999.0,94,0.00,,,0.00,Wunderground v.1.15,2013-11-06 13:05:00,
2013-11-06 07:15:00,28.5,27.0,30.25,West,280,0.0,-999.0,94,0.00,,,0.00,Wunderground v.1.15,2013-11-06 13:15:00,
2013-11-06 07:20:00,28.4,26.9,30.26,West,264,0.0,-999.0,94,0.00,,,0.00,Wunderground v.1.15,2013-11-06 13:20:00,
2013-11-06 07:30:00,28.4,26.9,30.26,NW,311,0.0,-999.0,94,0.00,,,0.00,Wunderground v.1.15,2013-11-06 13:30:00,
2013-11-06 07:35:00,28.5,27.0,30.26,West,269,0.0,-999.0,94,0.00,,,0.00,Wunderground v.1.15,2013-11-06 13:35:00,
2013-11-06 07:45:00,28.5,27.0,30.26,WNW,293,0.0,-999.0,94,0.00,,,0.00,Wunderground v.1.15,2013-11-06 13:45:00,
2013-11-06 07:55:00,28.5,26.7,30.26,West,276,0.0,-999.0,93,0.00,,,0.00,Wunderground v.1.15,2013-11-06 13:55:00,
2013-11-06 08:05:00,28.6,26.8,30.26,WNW,285,0.0,-999.0,93,0.00,,,0.00,Wunderground v.1.15,2013-11-06 14:05:00,
2013-11-06 08:15:00,28.9,27.1,30.27,West,280,0.0,-999.0,93,0.00,,,0.00,Wunderground v.1.15,2013-11-06 14:15:00,
2013-11-06 08:25:00,28.6,26.8,30.27,WNW,291,0.0,-999.0,93,0.00,,,0.00,Wunderground v.1.15,2013-11-06 14:25:00,
2013-11-06 08:35:00,28.5,26.7,30.28,WNW,284,0.0,-999.0,93,0.00,,,0.00,Wunderground v.1.15,2013-11-06 14:35:00,
2013-11-06 08:40:00,28.5,26.7,30.28,WNW,294,0.0,-999.0,93,0.00,,,0.00,Wunderground v.1.15,2013-11-06 14:40:00,
2013-11-06 08:50:00,28.8,27.0,30.29,West,269,0.0,-999.0,93,0.00,,,0.00,Wunderground v.1.15,2013-11-06 14:50:00,
2013-11-06 08:55:00,28.8,26.8,30.29,WNW,283,0.0,-999.0,92,0.00,,,0.00,Wunderground v.1.15,2013-11-06 14:55:00,
2013-11-06 09:05:00,29.0,27.0,30.29,West,269,0.0,-999.0,92,0.00,,,0.00,Wunderground v.1.15,2013-11-06 15:05:00,
2013-11-06 09:15:00,29.4,27.4,30.29,WNW,284,0.0,-999.0,92,0.00,,,0.00,Wunderground v.1.15,2013-11-06 15:15:00,
2013-11-06 09:25:00,29.8,27.8,30.29,WNW,301,0.0,-999.0,92,0.00,,,0.00,Wunderground v.1.15,2013-11-06 15:25:00,
2013-11-06 09:35:00,30.0,27.7,30.29,West,259,0.0,-999.0,91,0.00,,,0.00,Wunderground v.1.15,2013-11-06 15:35:00,
2013-11-06 09:44:00,30.2,27.9,30.29,WNW,294,0.0,-999.0,91,0.00,,,0.00,Wunderground v.1.15,2013-11-06 15:44:00,
2013-11-06 09:50:00,30.5,28.2,30.29,WNW,288,0.0,-999.0,91,0.00,,,0.00,Wunderground v.1.15,2013-11-06 15:50:00,
2013-11-06 09:55:00,30.8,28.2,30.29,WNW,295,0.0,-999.0,90,0.00,,,0.00,Wunderground v.1.15,2013-11-06 15:55:00,
2013-11-06 10:05:00,31.0,28.4,30.29,West,270,0.0,-999.0,90,0.00,,,0.00,Wunderground v.1.15,2013-11-06 16:05:00,
2013-11-06 10:15:00,31.3,28.7,30.29,WSW,252,0.0,-999.0,90,0.00,,,0.00,Wunderground v.1.15,2013-11-06 16:15:00,
2013-11-06 10:25:00,31.8,28.9,30.29,NW,318,0.0,-999.0,89,0.00,,,0.00,Wunderground v.1.15,2013-11-06 16:25:00,
2013-11-06 10:35:00,32.7,29.5,30.29,WNW,286,0.0,-999.0,88,0.00,,,0.00,Wunderground v.1.15,2013-11-06 16:35:00,
2013-11-06 10:45:00,32.8,29.6,30.28,SSW,210,1.0,-999.0,88,0.00,,,0.00,Wunderground v.1.15,2013-11-06 16:45:00,
2013-11-06 10:50:00,32.9,29.5,30.28,SSW,198,1.0,-999.0,87,0.00,,,0.00,Wunderground v.1.15,2013-11-06 16:50:00,
2013-11-06 11:00:00,33.5,30.0,30.29,West,273,1.0,-999.0,87,0.00,,,0.00,Wunderground v.1.15,2013-11-06 17:00:00,
2013-11-06 11:05:00,33.4,29.7,30.29,WNW,284,1.0,-999.0,86,0.00,,,0.00,Wunderground v.1.15,2013-11-06 17:05:00,
2013-11-06 11:15:00,33.6,29.9,30.29,WSW,253,1.0,-999.0,86,0.00,,,0.00,Wunderground v.1.15,2013-11-06 17:15:00,
2013-11-06 11:25:00,33.9,29.9,30.29,NW,314,1.0,-999.0,85,0.00,,,0.00,Wunderground v.1.15,2013-11-06 17:25:00,
2013-11-06 11:35:00,34.3,30.3,30.28,West,259,1.0,-999.0,85,0.00,,,0.00,Wunderground v.1.15,2013-11-06 17:35:00,
2013-11-06 11:45:00,34.2,29.9,30.28,SW,221,2.0,-999.0,84,0.00,,,0.00,Wunderground v.1.15,2013-11-06 17:45:00,
2013-11-06 11:50:00,34.2,30.2,30.28,WNW,288,2.0,-999.0,85,0.00,,,0.00,Wunderground v.1.15,2013-11-06 17:50:00,
2013-11-06 12:04:00,34.0,30.0,30.28,SW,216,1.0,-999.0,85,0.00,,,0.00,Wunderground v.1.15,2013-11-06 18:04:00,
2013-11-06 12:10:00,33.9,30.2,30.28,WNW,285,1.0,-999.0,86,0.00,,,0.00,Wunderground v.1.15,2013-11-06 18:10:00,
2013-11-06 12:15:00,33.8,29.8,30.28,WSW,248,1.0,-999.0,85,0.00,,,0.00,Wunderground v.1.15,2013-11-06 18:15:00,
2013-11-06 12:25:00,34.0,30.0,30.27,WNW,284,1.0,-999.0,85,0.00,,,0.00,Wunderground v.1.15,2013-11-06 18:25:00,
2013-11-06 12:35:00,34.8,30.8,30.27,SW,228,1.0,-999.0,85,0.00,,,0.00,Wunderground v.1.15,2013-11-06 18:35:00,
2013-11-06 12:45:00,34.7,30.7,30.28,SSW,204,2.0,-999.0,85,0.00,,,0.00,Wunderground v.1.15,2013-11-06 18:45:00,
2013-11-06 12:55:00,34.2,30.2,30.27,WSW,252,3.0,-999.0,85,0.00,,,0.00,Wunderground v.1.15,2013-11-06 18:55:00,
2013-11-06 13:00:00,34.4,30.4,30.27,SW,219,2.0,-999.0,85,0.00,,,0.00,Wunderground v.1.15,2013-11-06 19:00:00,
2013-11-06 13:10:00,34.3,30.3,30.27,SSW,208,3.0,-999.0,85,0.00,,,0.00,Wunderground v.1.15,2013-11-06 19:10:00,
2013-11-06 13:15:00,34.1,30.4,30.28,West,262,3.0,-999.0,86,0.00,,,0.00,Wunderground v.1.15,2013-11-06 19:15:00,
2013-11-06 13:25:00,34.0,30.3,30.27,West,264,2.0,-999.0,86,0.00,,,0.00,Wunderground v.1.15,2013-11-06 19:25:00,
2013-11-06 13:35:00,34.0,30.3,30.27,WSW,255,3.0,-999.0,86,0.00,,,0.00,Wunderground v.1.15,2013-11-06 19:35:00,
2013-11-06 13:45:00,33.8,30.1,30.27,WSW,238,4.0,-999.0,86,0.00,,,0.00,Wunderground v.1.15,2013-11-06 19:45:00,
2013-11-06 13:55:00,33.8,30.1,30.27,WSW,254,4.0,-999.0,86,0.00,,,0.00,Wunderground v.1.15,2013-11-06 19:55:00,
2013-11-06 14:00:00,33.6,29.9,30.27,SW,235,4.0,-999.0,86,0.00,,,0.00,Wunderground v.1.15,2013-11-06 20:00:00,
2013-11-06 14:10:00,33.9,30.4,30.26,SSW,201,3.0,-999.0,87,0.00,,,0.00,Wunderground v.1.15,2013-11-06 20:10:00,
2013-11-06 14:15:00,34.1,30.4,30.26,SSW,203,3.0,-999.0,86,0.00,,,0.00,Wunderground v.1.15,2013-11-06 20:15:00,
2013-11-06 14:25:00,33.8,29.8,30.26,West,265,3.0,-999.0,85,0.00,,,0.00,Wunderground v.1.15,2013-11-06 20:25:00,
2013-11-06 14:35:00,33.7,30.2,30.26,West,264,2.0,-999.0,87,0.00,,,0.00,Wunderground v.1.15,2013-11-06 20:35:00,
2013-11-06 14:45:00,33.9,30.4,30.26,SW,226,2.0,-999.0,87,0.00,,,0.00,Wunderground v.1.15,2013-11-06 20:45:00,
2013-11-06 14:55:00,33.6,29.9,30.26,West,269,4.0,-999.0,86,0.00,,,0.00,Wunderground v.1.15,2013-11-06 20:55:00,
2013-11-06 15:00:00,33.5,30.0,30.26,SW,215,3.0,-999.0,87,0.00,,,0.00,Wunderground v.1.15,2013-11-06 21:00:00,
2013-11-06 15:10:00,33.5,29.8,30.26,WSW,248,3.0,-999.0,86,0.00,,,0.00,Wunderground v.1.15,2013-11-06 21:10:00,
2013-11-06 15:15:00,33.3,29.6,30.26,SSW,213,4.0,-999.0,86,0.00,,,0.00,Wunderground v.1.15,2013-11-06 21:15:00,
2013-11-06 15:25:00,33.1,29.7,30.26,WSW,249,4.0,-999.0,87,0.00,,,0.00,Wunderground v.1.15,2013-11-06 21:25:00,
2013-11-06 15:35:00,33.0,29.6,30.26,West,276,4.0,-999.0,87,0.00,,,0.00,Wunderground v.1.15,2013-11-06 21:35:00,
2013-11-06 15:45:00,32.8,29.4,30.26,WSW,240,4.0,-999.0,87,0.00,,,0.00,Wunderground v.1.15,2013-11-06 21:45:00,
2013-11-06 15:55:00,33.1,29.9,30.26,WSW,250,1.0,-999.0,88,0.00,,,0.00,Wunderground v.1.15,2013-11-06 21:55:00,
2013-11-06 16:00:00,33.2,30.0,30.26,South,184,1.0,-999.0,88,0.00,,,0.00,Wunderground v.1.15,2013-11-06 22:00:00,
2013-11-06 16:10:00,33.3,29.8,30.26,WSW,246,1.0,-999.0,87,0.00,,,0.00,Wunderground v.1.15,2013-11-06 22:10:00,
2013-11-06 16:15:00,33.2,30.0,30.26,SW,231,1.0,-999.0,88,0.00,,,0.00,Wunderground v.1.15,2013-11-06 22:15:00,
2013-11-06 16:25:00,33.1,29.7,30.26,SSW,210,3.0,-999.0,87,0.00,,,0.00,Wunderground v.1.15,2013-11-06 22:25:00,
2013-11-06 16:35:00,33.2,30.0,30.27,SSW,208,2.0,-999.0,88,0.00,,,0.00,Wunderground v.1.15,2013-11-06 22:35:00,
2013-11-06 16:45:00,33.3,30.1,30.27,West,270,2.0,-999.0,88,0.00,,,0.00,Wunderground v.1.15,2013-11-06 22:45:00,
2013-11-06 16:55:00,33.2,30.0,30.27,WSW,238,0.0,-999.0,88,0.00,,,0.00,Wunderground v.1.15,2013-11-06 22:55:00,
2013-11-06 17:05:00,33.0,30.1,30.26,WSW,242,0.0,-999.0,89,0.00,,,0.00,Wunderground v.1.15,2013-11-06 23:05:00,
2013-11-06 17:10:00,32.8,29.9,30.27,WSW,243,0.0,-999.0,89,0.00,,,0.00,Wunderground v.1.15,2013-11-06 23:10:00,
2013-11-06 17:20:00,32.4,29.8,30.26,SW,236,0.0,-999.0,90,0.00,,,0.00,Wunderground v.1.15,2013-11-06 23:20:00,
2013-11-06 17:25:00,32.3,29.7,30.26,SW,236,0.0,-999.0,90,0.00,,,0.00,Wunderground v.1.15,2013-11-06 23:25:00,
2013-11-06 17:35:00,31.9,29.3,30.26,SW,236,0.0,-999.0,90,0.00,,,0.00,Wunderground v.1.15,2013-11-06 23:35:00,
2013-11-06 17:45:00,31.6,29.3,30.26,SW,236,0.0,-999.0,91,0.00,,,0.00,Wunderground v.1.15,2013-11-06 23:45:00,
2013-11-06 17:55:00,31.3,29.0,30.26,SW,236,0.0,-999.0,91,0.00,,,0.00,Wunderground v.1.15,2013-11-06 23:55:00,
2013-11-06 18:05:00,31.1,29.0,30.27,SW,236,0.0,-999.0,92,0.00,,,0.00,Wunderground v.1.15,2013-11-07 00:05:00,
2013-11-06 18:15:00,31.0,28.9,30.27,SW,236,0.0,-999.0,92,0.00,,,0.00,Wunderground v.1.15,2013-11-07 00:15:00,
2013-11-06 18:20:00,30.9,28.9,30.27,SW,236,0.0,-999.0,92,0.00,,,0.00,Wunderground v.1.15,2013-11-07 00:20:00,
2013-11-06 18:30:00,30.6,28.8,30.28,SW,236,0.0,-999.0,93,0.00,,,0.00,Wunderground v.1.15,2013-11-07 00:30:00,
2013-11-06 18:50:00,30.3,28.5,30.28,SW,217,0.0,-999.0,93,0.00,,,0.00,Wunderground v.1.15,2013-11-07 00:50:00,
2013-11-06 18:59:00,30.1,28.3,30.28,SW,217,0.0,-999.0,93,0.00,,,0.00,Wunderground v.1.15,2013-11-07 00:59:00,
2013-11-06 19:05:00,30.0,28.2,30.28,SW,217,0.0,-999.0,93,0.00,,,0.00,Wunderground v.1.15,2013-11-07 01:05:00,
2013-11-06 19:10:00,30.0,28.2,30.28,SW,217,0.0,-999.0,93,0.00,,,0.00,Wunderground v.1.15,2013-11-07 01:10:00,
2013-11-06 19:20:00,29.5,27.7,30.28,SW,217,0.0,-999.0,93,0.00,,,0.00,Wunderground v.1.15,2013-11-07 01:20:00,
2013-11-06 19:25:00,29.2,27.4,30.28,SW,217,0.0,-999.0,93,0.00,,,0.00,Wunderground v.1.15,2013-11-07 01:25:00,
2013-11-06 19:35:00,29.0,27.2,30.28,SW,217,0.0,-999.0,93,0.00,,,0.00,Wunderground v.1.15,2013-11-07 01:35:00,
2013-11-06 19:45:00,29.2,27.7,30.28,SW,217,0.0,-999.0,94,0.00,,,0.00,Wunderground v.1.15,2013-11-07 01:45:00,
2013-11-06 19:55:00,29.3,27.8,30.28,SW,217,0.0,-999.0,94,0.00,,,0.00,Wunderground v.1.15,2013-11-07 01:55:00,
2013-11-06 20:05:00,29.6,28.3,30.28,SW,217,0.0,-999.0,95,0.00,,,0.00,Wunderground v.1.15,2013-11-07 02:05:00,
2013-11-06 20:10:00,29.8,28.3,30.28,SW,217,0.0,-999.0,94,0.00,,,0.00,Wunderground v.1.15,2013-11-07 02:10:00,
2013-11-06 20:20:00,29.8,28.3,30.28,WSW,249,0.0,-999.0,94,0.00,,,0.00,Wunderground v.1.15,2013-11-07 02:20:00,
2013-11-06 20:25:00,29.8,28.3,30.28,West,269,0.0,-999.0,94,0.00,,,0.00,Wunderground v.1.15,2013-11-07 02:25:00,
2013-11-06 20:35:00,29.6,28.1,30.29,West,270,0.0,-999.0,94,0.00,,,0.00,Wunderground v.1.15,2013-11-07 02:35:00,
2013-11-06 20:45:00,29.4,27.6,30.29,West,269,0.0,-999.0,93,0.00,,,0.00,Wunderground v.1.15,2013-11-07 02:45:00,
2013-11-06 20:55:00,29.1,27.3,30.29,West,270,0.0,-999.0,93,0.00,,,0.00,Wunderground v.1.15,2013-11-07 02:55:00,
2013-11-06 21:05:00,28.8,27.0,30.29,West,270,0.0,-999.0,93,0.00,,,0.00,Wunderground v.1.15,2013-11-07 03:05:00,
2013-11-06 21:10:00,28.6,26.8,30.29,West,270,0.0,-999.0,93,0.00,,,0.00,Wunderground v.1.15,2013-11-07 03:10:00,
2013-11-06 21:20:00,28.3,26.8,30.30,West,270,0.0,-999.0,94,0.00,,,0.00,Wunderground v.1.15,2013-11-07 03:20:00,
2013-11-06 21:25:00,28.2,26.7,30.30,West,270,0.0,-999.0,94,0.00,,,0.00,Wunderground v.1.15,2013-11-07 03:25:00,
2013-11-06 21:35:00,28.2,26.7,30.30,West,270,0.0,-999.0,94,0.00,,,0.00,Wunderground v.1.15,2013-11-07 03:35:00,
2013-11-06 21:45:00,28.5,27.3,30.30,West,270,0.0,-999.0,95,0.00,,,0.00,Wunderground v.1.15,2013-11-07 03:45:00,
2013-11-06 21:55:00,29.0,27.7,30.30,West,270,0.0,-999.0,95,0.00,,,0.00,Wunderground v.1.15,2013-11-07 03:55:00,
2013-11-06 22:05:00,29.2,27.9,30.30,West,270,0.0,-999.0,95,0.00,,,0.00,Wunderground v.1.15,2013-11-07 04:05:00,
2013-11-06 22:10:00,29.2,27.7,30.30,West,269,0.0,-999.0,94,0.00,,,0.00,Wunderground v.1.15,2013-11-07 04:10:00,
2013-11-06 22:20:00,29.0,27.5,30.31,West,269,0.0,-999.0,94,0.00,,,0.00,Wunderground v.1.15,2013-11-07 04:20:00,
2013-11-06 22:30:00,29.0,27.5,30.31,West,277,0.0,-999.0,94,0.00,,,0.00,Wunderground v.1.15,2013-11-07 04:30:00,
2013-11-06 22:35:00,29.0,27.5,30.31,West,276,0.0,-999.0,94,0.00,,,0.00,Wunderground v.1.15,2013-11-07 04:35:00,
2013-11-06 22:45:00,28.8,27.0,30.31,West,277,0.0,-999.0,93,0.00,,,0.00,Wunderground v.1.15,2013-11-07 04:45:00,
2013-11-06 22:55:00,28.6,26.8,30.32,West,277,0.0,-999.0,93,0.00,,,0.00,Wunderground v.1.15,2013-11-07 04:55:00,
2013-11-06 23:05:00,28.2,26.4,30.31,West,277,0.0,-999.0,93,0.00,,,0.00,Wunderground v.1.15,2013-11-07 05:05:00,
2013-11-06 23:10:00,28.1,26.3,30.32,West,277,0.0,-999.0,93,0.00,,,0.00,Wunderground v.1.15,2013-11-07 05:10:00,
2013-11-06 23:14:00,27.8,26.0,30.32,West,277,0.0,-999.0,93,0.00,,,0.00,Wunderground v.1.15,2013-11-07 05:14:00,
2013-11-06 23:20:00,27.6,25.8,30.32,West,276,0.0,-999.0,93,0.00,,,0.00,Wunderground v.1.15,2013-11-07 05:20:00,
2013-11-06 23:25:00,27.4,25.6,30.32,West,276,0.0,-999.0,93,0.00,,,0.00,Wunderground v.1.15,2013-11-07 05:25:00,
2013-11-06 23:35:00,27.2,25.7,30.32,West,277,0.0,-999.0,94,0.00,,,0.00,Wunderground v.1.15,2013-11-07 05:35:00,
2013-11-06 23:45:00,27.0,25.5,30.32,West,276,0.0,-999.0,94,0.00,,,0.00,Wunderground v.1.15,2013-11-07 05:45:00,
2013-11-06 23:55:00,27.0,25.5,30.32,West,276,0.0,-999.0,94,0.00,,,0.00,Wunderground v.1.15,2013-11-07 05:55:00,